{"data":{"norad_id":63716,"epoch":"2026-05-24T17:46:41.313216Z","epoch_age_seconds":94684,"freshness":"FRESH","line1":"1 63716U 25087V   26144.74075594  .00018766  00000+0  61464-3 0  9994","line2":"2 63716  53.1607 226.2865 0000458  67.9035 292.2015 15.31717438 60844","mean_motion":15.31717438,"eccentricity":4.58e-5,"inclination_deg":53.1607,"raan_deg":226.2865,"arg_perigee_deg":67.9035,"mean_anomaly_deg":292.2015,"bstar":0.00061464,"rev_number":6084,"period_min":94.012117657957,"perigee_km":470.37433776257,"apogee_km":471.00169013385,"semimajor_km":6848.8250139482,"source":"CELESTRAK","updated_at":"2026-05-25T13:38:20.100731Z"}}